User: anonymous   Login
Location: Raven Hill Discovery Center
(45.1336°N, 85.0553°W)
Time: 04:56:01
(UTC-05:00)
Language:

Cosmos 1470 - Orbit

View from above orbital plane
View from above orbital plane
View from above satellite
View from above satellite

Ground track
Ground track

The orbit data is extracted from the following two-line orbital elements,

1 14147U 83061A   16038.80504302  .00001819  00000-0  11026-3 0  9997
2 14147  82.4906 165.1748 0014943 157.3057 202.8836 15.09891587530043
Epoch (UTC): 07 February 2016 19:19:15
Eccentricity: 0.0014943
inclination: 82.4906°
perigee height: 526 km
apogee height: 547 km
right ascension of ascending node: 165.1748°
argument of perigee: 157.3057°
revolutions per day: 15.09891587
mean anomaly at epoch: 202.8836°
orbit number at epoch: 53004

The dashed part of the orbit path shows where the satellite is in the earth's shadow,  

DLR